Location: Warszawa
(52.2500°N, 21.0000°E)
Time: 13:32:46
(UTC+02:00)

Vanguard 2 - Pass Details

Date: 10 February 2023
Orbit: 553 x 2927 km, 32.9° (Epoch: 27 March)

Event Time Altitude Azimuth Distance (km) Brightness Sun altitude
Rises 19:37:07 0° 221° (SW) 4,510 11.8 -27.5°
Reaches altitude 10° 19:40:23 10° 208° (SSW) 3,866 11.2 -28.0°
Maximum altitude 19:48:46 27° 157° (SSE) 3,464 10.5 -29.2°
Enters shadow 19:49:08 27° 154° (SSE) 3,493 10.5 -29.3°
Drops below altitude 10° 20:00:12 10° 109° (ESE) 5,392 - -30.9°
Sets 20:05:50 0° 99° (E) 6,637 - -31.7°
